Dewpoint
29 25 24 24 24 22 20 19 19 27 26 24 23 22 21 20 19 18 18 17 16 16 16 16 16 17 19 19 20 21 23 23 25 28 30 33 35 35 32 33 32 32 32 33
27 24 26 25 25 24 23 21 25 25 24 23 21 20 20 19 18 17 16 15 15 15 14 14 14 14 15 17 18 19 20 23 23 25 27 31 32 32 31 31 31 31 30 30
24 21 25 25 25 23 23 21 26 24 22 21 20 19 18 16 15 14 14 14 13 13 13 12 11 11 12 14 15 16 18 20 22 23 24 26 27 27 26 27 28 29 29 29
25 24 23 26 23 24 22 22 26 23 23 21 22 19 17 15 12 12 12 12 12 11 11 10 9 8 8 10 12 14 14 15 19 20 22 23 23 23 24 25 25 26 27 27
24 24 25 23 24 23 21 25 25 24 23 21 21 20 16 13 11 10 10 10 10 8 8 7 7 6 6 7 9 10 12 12 14 16 17 19 20 22 22 22 22 23 24 25
24 29 25 24 25 23 24 25 26 25 22 20 21 21 16 14 14 10 9 8 7 5 4 3 4 4 6 6 7 7 9 10 10 13 15 15 13 15 15 15 17 19 21 22
26 26 27 28 25 27 25 23 21 20 20 18 22 21 15 12 11 10 8 7 6 4 3 3 3 3 2 5 5 5 6 8 9 9 10 14 13 11 11 12 13 12 14 15
23 22 26 27 25 24 25 22 20 16 19 20 22 19 13 11 10 8 7 4 3 3 3 3 3 4 2 2 5 6 7 6 9 9 9 10 14 12 9 10 12 11 12 13
23 23 25 28 28 26 25 24 26 22 22 19 14 11 15 10 9 7 5 4 2 2 3 4 4 5 5 5 6 7 7 6 7 8 9 8 9 13 10 7 10 12 11 9
25 23 24 25 27 27 27 27 23 24 20 18 15 10 11 11 9 7 5 4 3 3 3 4 5 5 6 6 6 7 6 7 7 8 9 8 8 11 11 8 8 11 10 10
22 24 19 24 20 23 25 25 25 25 22 17 14 14 11 11 9 8 6 4 4 4 3 3 4 6 6 6 4 6 5 5 6 7 8 8 7 8 10 8 7 9 10 9
18 18 19 19 18 17 17 20 22 22 20 20 16 11 9 12 9 7 4 4 6 5 3 1 3 4 4 5 3 5 5 3 5 6 6 6 6 7 7 7 6 7 7 8
13 16 17 17 16 16 16 16 19 19 20 19 18 11 8 8 7 6 6 7 7 7 2 -0 1 2 2 3 2 3 4 3 3 4 5 4 3 4 4 4 4 4 5 5
19 15 15 18 16 16 14 12 14 15 19 17 12 5 7 7 6 6 6 6 7 5 1 -3 -1 -0 -0 0 0 1 3 2 1 3 3 1 1 2 2 1 -0 1 2 1
18 11 13 13 13 12 12 12 11 9 9 12 9 6 6 6 4 2 4 4 5 4 -1 -4 -2 -2 -1 -1 -1 -0 1 2 0 2 1 -0 -1 0 1 -2 -2 -1 -1 -1
16 15 9 12 9 8 8 9 9 8 7 6 6 6 4 3 2 3 4 4 5 4 -0 -3 -3 -2 -2 -1 -1 1 2 1 0 1 0 -1 -1 0 -1 -3 -1 -1 -2 -3
15 14 5 4 5 3 -6 5 7 6 6 7 3 5 3 3 3 1 1 2 3 3 -2 -5 -3 -2 -1 -1 0 1 1 -1 -1 -0 -0 -2 -2 -1 -3 -2 -1 -2 -4 -3
12 12 8 6 5 -21 3 7 7 4 4 5 5 4 2 2 1 0 -0 0 1 -2 -5 -5 -3 -2 -1 -1 -1 -1 -2 -2 -1 -2 -2 -4 -2 -4 -4 -3 -3 -4 -4 -3
17 12 7 3 3 2 4 5 5 4 3 2 2 2 1 -3 -2 -1 1 -1 -2 -5 -4 -3 -3 -2 -2 -2 -1 -2 -3 -4 -3 -4 -3 -4 -3 -6 -5 -5 -6 -6 -4 -5
12 13 8 7 -7 -14 3 5 4 3 1 3 1 1 -2 -4 -14 -4 2 -3 -4 -4 -3 -3 -2 -2 -2 -2 -3 -4 -3 -4 -4 -3 -3 -4 -6 -6 -7 -7 -7 -7 -7 -8
10 8 6 8 2 2 2 4 3 -2 -3 2 1 -0 -3 -8 -8 -0 -2 -5 -5 -4 -3 -2 -0 -1 -2 -3 -3 -3 -3 -4 -3 -2 -6 -8 -9 -9 -9 -9 -10 -10 -9 -9
7 6 7 6 3 -2 3 3 -0 0 -2 -0 -2 -2 -3 -4 -4 -3 -5 -5 -4 -3 -2 -1 -1 -2 -2 -2 -3 -4 -4 -4 -4 -5 -9 -10 -10 -10 -11 -11 -11 -10 -9 -7
6 4 5 2 2 -1 -0 1 -2 -2 0 -1 -2 -3 -3 -3 -5 -6 -6 -5 -4 -2 -1 -0 -1 -2 -3 -3 -3 -4 -5 -5 -5 -10 -10 -10 -11 -11 -11 -11 -11 -8 -6 -7
-1 -0 1 -0 2 1 -0 -2 -4 -5 -1 -5 -11 -10 -5 -7 -6 -6 -5 -3 -2 -1 -1 -1 -2 -3 -4 -4 -5 -5 -6 -6 -9 -10 -10 -10 -10 -9 -9 -9 -6 -7 -6 -5
0 -1 -0 -2 0 -1 -2 -4 -3 -6 -9 -8 -8 -7 -7 -5 -5 -4 -3 -3 -2 -1 -2 -3 -4 -4 -5 -5 -5 -5 -7 -9 -9 -9 -9 -8 -8 -8 -8 -7 -7 -6 -4 -3
-2 -3 -6 -5 -0 -4 -3 -5 -5 -4 -4 -4 -5 -6 -4 -3 -3 -2 -2 -2 -2 -4 -4 -4 -4 -4 -5 -5 -7 -9 -8 -8 -8 -8 -7 -7 -5 -5 -5 -4 -3 -1 2 4
Wind_Speed
6 11 23 19 14 5 12 9 12 7 16 17 23 21 14 13 17 15 13 13 14 17 16 19 21 21 22 24 26 27 27 27 24 23 16 10 15 17 19 19 23 24 24 25
6 21 15 11 11 15 5 6 9 16 14 17 20 18 11 10 13 13 13 13 12 13 15 17 20 21 23 23 23 25 26 25 25 20 17 7 10 10 15 17 20 24 24 25
14 8 17 16 13 17 12 12 20 13 16 18 24 7 6 10 15 14 14 13 13 13 14 16 18 19 20 22 23 23 24 24 24 23 17 15 12 12 14 21 21 22 23 24
6 12 19 15 20 15 16 13 23 28 14 9 17 9 7 14 11 11 11 11 11 12 13 14 16 18 19 19 19 20 22 23 23 25 21 23 20 17 15 15 16 18 22 22
13 11 9 17 17 15 9 19 27 23 12 10 14 3 2 17 10 10 10 11 11 12 12 14 14 16 17 17 16 18 19 22 23 23 23 19 20 15 13 15 18 20 19 20
10 2 7 11 6 16 12 12 6 7 6 13 20 14 10 16 14 15 11 11 11 11 12 13 13 14 15 17 18 18 19 21 22 21 22 22 22 19 20 20 19 18 17 18
4 4 2 4 6 5 11 17 7 8 11 9 15 17 3 7 19 21 18 13 11 11 11 12 13 15 16 17 18 17 19 20 20 21 21 20 19 18 18 19 17 19 18 18
14 9 10 5 6 8 15 20 11 12 11 8 9 9 4 13 18 18 17 15 13 12 11 11 12 13 14 16 17 17 18 18 19 19 18 18 18 15 15 15 14 14 15 15
13 10 1 2 2 6 11 17 5 5 2 6 7 4 3 15 17 18 16 14 12 10 10 10 10 11 12 14 15 15 16 16 17 17 16 17 16 16 16 16 14 14 15 17
5 5 1 2 1 0 4 6 7 3 10 9 5 6 6 26 22 19 16 13 11 9 9 9 9 10 10 11 11 12 13 13 14 14 14 14 14 14 14 14 16 16 15 17
4 3 2 3 2 5 4 6 4 5 5 8 8 6 4 25 25 21 16 13 11 9 8 8 8 9 9 10 12 12 14 14 15 14 14 14 14 14 13 13 14 14 15 16
2 5 5 3 2 4 1 2 3 12 8 2 2 5 10 20 21 21 16 13 10 10 8 7 8 9 11 11 14 13 14 15 14 13 14 14 13 13 14 15 15 14 15 14
8 4 6 1 2 1 2 2 0 3 2 8 9 5 6 19 19 15 17 12 11 9 6 7 9 9 10 11 13 13 12 13 13 13 14 14 14 14 15 15 15 14 14 15
5 6 4 15 3 5 7 3 3 2 8 8 5 15 14 16 20 15 12 11 11 9 5 6 8 8 8 8 9 11 13 13 13 14 14 15 15 15 15 16 16 16 16 16
4 6 7 10 7 8 8 6 3 4 3 5 11 12 25 21 20 15 10 11 11 8 3 6 7 9 9 10 11 10 11 12 11 13 14 15 15 14 14 16 16 16 16 17
3 7 5 6 8 9 10 9 14 11 10 14 13 6 8 9 11 11 12 10 10 10 5 6 8 9 10 11 12 12 12 12 12 13 15 15 14 13 13 14 15 15 16 18
9 13 8 6 7 6 2 1 4 5 4 6 6 7 19 13 13 12 10 8 9 9 5 10 10 10 11 12 12 13 13 12 13 13 14 14 13 12 13 13 13 14 16 15
13 9 5 9 6 7 1 3 3 13 6 6 15 19 14 12 5 3 6 8 8 4 8 11 11 12 12 10 13 13 12 13 13 14 14 14 12 12 13 12 12 13 13 14
5 7 8 10 6 3 2 6 8 4 3 2 15 13 9 4 1 3 5 5 3 4 8 11 13 15 14 15 15 14 15 14 14 16 15 14 12 13 12 13 13 13 13 12
13 10 7 5 6 9 2 4 3 2 5 13 11 14 12 5 5 3 9 2 7 8 10 13 14 14 14 16 13 13 16 15 17 15 15 13 12 12 13 13 15 11 11 14
4 5 6 6 4 1 3 6 2 6 6 16 13 13 11 6 2 5 2 8 7 10 12 13 14 15 16 15 13 16 17 17 16 13 13 12 13 14 14 13 12 12 13 14
4 6 4 5 5 6 10 7 3 3 5 12 11 9 9 7 5 6 8 11 10 13 13 12 14 16 16 14 13 17 18 16 14 14 14 15 15 14 15 15 14 14 14 15
3 2 7 2 3 1 2 2 4 3 12 7 9 7 6 6 6 6 10 12 14 13 13 13 15 17 15 14 14 17 19 15 15 15 17 16 16 16 16 16 16 15 12 13
1 1 6 4 3 7 4 4 4 4 8 10 6 5 7 7 7 11 13 12 13 13 14 14 14 16 20 15 16 18 18 16 16 19 18 16 17 16 15 14 12 14 13 13
1 3 8 6 2 2 4 5 7 7 8 7 3 3 6 7 11 12 14 15 15 15 14 14 16 17 20 17 18 18 17 16 19 18 18 18 16 17 17 16 15 15 15 16
1 5 3 6 13 3 5 10 9 11 8 6 3 4 6 9 13 13 16 15 16 17 16 16 18 19 20 17 20 19 17 15 18 19 18 17 16 15 14 15 17 20 25 26
Wind_Direction
166 187 205 198 193 140 165 162 144 96 122 78 106 114 109 100 88 85 77 66 57 55 44 37 31 26 22 23 20 18 16 14 16 16 9 7 21 26 27 23 21 22 22 19
152 220 216 202 193 204 168 153 102 84 104 93 117 104 102 97 93 93 89 74 63 56 45 37 31 26 25 21 20 19 19 19 21 19 13 13 358 21 28 19 21 22 24 23
182 220 202 196 203 215 225 201 170 153 100 82 119 108 128 105 103 96 86 84 69 60 51 41 35 29 25 23 19 20 19 20 22 21 22 24 30 27 20 14 15 16 20 22
224 223 181 195 216 194 218 212 154 146 160 177 215 212 176 153 120 104 98 85 76 66 57 50 41 35 28 22 21 22 23 22 23 23 28 35 39 33 16 9 10 14 18 20
214 203 182 195 208 180 217 148 155 166 159 130 200 224 127 149 168 147 123 104 88 74 64 53 46 41 32 23 22 21 25 26 22 27 30 32 34 29 19 16 17 16 14 18
211 207 190 198 173 191 158 115 95 143 166 228 192 201 204 185 188 151 131 113 101 86 67 56 45 42 34 26 21 27 24 26 22 24 28 30 30 23 22 16 17 11 11 10
163 193 184 150 146 144 160 145 143 182 209 225 182 196 33 123 141 149 140 122 105 90 73 58 42 33 32 26 21 23 22 23 19 22 25 24 25 25 24 17 11 9 5 6
176 207 187 183 190 185 182 185 175 195 197 179 145 212 160 121 117 124 125 120 106 87 75 62 48 38 31 26 24 19 21 21 17 18 18 18 20 21 19 12 8 8 2 357
185 208 92 114 140 165 201 214 159 109 103 154 150 87 132 142 137 135 134 126 114 98 79 64 49 39 29 24 21 18 19 19 17 16 11 14 13 17 13 8 6 3 360 358
177 161 259 137 101 258 195 175 189 166 194 212 221 215 201 179 169 158 151 139 126 110 84 61 47 37 30 23 15 18 18 16 10 10 9 9 4 6 7 7 4 359 355 354
141 136 161 158 17 185 173 191 201 194 193 212 207 224 38 175 168 163 153 145 135 117 91 59 40 31 26 22 16 14 14 9 7 4 0 360 359 359 358 2 357 352 348 350
156 113 149 205 1 34 86 190 197 210 211 175 179 204 336 166 152 143 144 142 133 121 98 57 33 20 15 12 8 6 6 5 359 355 354 354 351 353 355 353 348 345 346 344
165 145 134 124 261 310 181 20 42 106 79 198 216 201 86 116 126 135 138 144 140 131 100 44 23 9 1 356 355 354 350 350 347 347 349 349 350 350 348 345 342 343 343 342
105 87 182 206 164 131 165 102 58 131 204 188 201 157 174 151 144 145 143 144 147 142 111 32 4 346 335 331 330 336 335 336 338 342 343 342 340 337 334 335 338 340 340 340
104 123 101 60 69 90 90 77 71 132 116 202 167 162 178 167 158 159 154 152 162 171 161 4 332 321 321 325 327 328 322 319 326 330 332 330 325 325 327 330 331 331 334 331
56 127 108 67 67 90 98 64 80 88 100 90 123 98 155 143 136 149 157 169 193 199 222 313 313 315 322 322 320 320 320 317 321 323 323 320 323 322 320 318 321 321 322 324
143 145 149 152 131 112 164 80 67 103 69 132 165 152 151 157 165 170 179 193 212 208 258 312 313 312 311 312 309 313 313 311 315 316 314 316 317 315 316 313 313 314 316 314
135 117 87 131 141 208 96 353 240 119 69 84 107 134 146 146 141 191 223 223 202 220 301 312 313 310 305 300 303 300 304 307 308 310 306 308 307 303 308 310 307 307 304 305
95 122 115 154 169 333 248 197 160 157 157 153 133 134 126 99 50 274 154 156 166 293 295 289 290 290 291 298 295 298 303 305 306 305 302 300 293 296 302 305 304 301 299 304
72 85 111 145 161 200 159 167 156 170 154 183 162 156 151 122 186 210 183 223 303 291 285 289 291 289 290 292 291 294 295 299 298 295 292 287 281 281 289 290 292 291 290 301
98 51 123 125 115 255 193 157 154 163 160 162 167 160 158 183 189 138 227 287 278 282 288 288 285 282 281 285 287 287 289 289 284 282 280 277 281 279 284 283 284 289 291 294
138 135 140 119 119 187 162 122 162 151 98 142 149 162 188 223 256 273 283 287 291 294 296 289 287 285 284 284 283 282 280 276 271 268 269 275 275 274 287 285 286 287 287 286
144 105 141 85 125 45 106 105 124 110 138 156 153 173 206 235 256 274 286 291 292 289 287 279 276 283 280 270 264 270 271 273 272 271 273 271 271 274 276 279 280 281 279 284
54 150 94 142 69 121 91 90 105 106 136 143 129 180 197 239 267 284 288 287 287 280 278 277 276 277 281 275 268 261 267 268 266 271 271 271 272 273 260 256 262 277 274 270
179 147 126 82 107 142 229 212 165 130 129 140 158 213 236 244 276 277 287 288 286 285 284 278 275 273 271 271 266 261 264 262 267 268 271 271 269 270 270 263 261 260 257 258
299 137 127 148 156 124 152 167 163 165 185 205 243 267 252 250 272 283 286 284 283 283 279 274 269 270 273 271 270 272 266 254 259 268 270 267 268 260 258 261 267 266 276 282